TimeEDT,TemperatureF,Dew PointF,Humidity,Sea Level PressureIn,VisibilityMPH,Wind Direction,Wind SpeedMPH,Gust SpeedMPH,PrecipitationIn,Events,Conditions,WindDirDegrees,DateUTC
12:53 AM,77.0,70.0,79,29.97,10.0,Calm,Calm,-,N/A,,Partly Cloudy,0,2014-05-03 04:53:00
1:16 AM,77.0,71.1,82,29.97,10.0,NNW,5.8,-,N/A,,Mostly Cloudy,340,2014-05-03 05:16:00
1:49 AM,78.8,71.6,78,29.96,10.0,NNE,4.6,-,N/A,,Overcast,30,2014-05-03 05:49:00
1:53 AM,78.1,71.1,79,29.96,10.0,NE,4.6,-,N/A,,Mostly Cloudy,50,2014-05-03 05:53:00
2:53 AM,78.1,71.1,79,29.94,10.0,ENE,5.8,-,N/A,,Clear,60,2014-05-03 06:53:00
3:53 AM,77.0,71.1,82,29.93,10.0,East,4.6,-,N/A,,Partly Cloudy,80,2014-05-03 07:53:00
4:53 AM,78.1,70.0,76,29.94,10.0,East,3.5,-,N/A,,Clear,100,2014-05-03 08:53:00
5:53 AM,77.0,71.6,83,29.93,10.0,SE,3.5,-,N/A,Rain,Light Rain,130,2014-05-03 09:53:00
6:53 AM,77.0,73.9,90,29.94,10.0,SSW,4.6,-,0.01,,Clear,200,2014-05-03 10:53:00
7:53 AM,75.9,72.0,87,29.94,10.0,South,5.8,-,N/A,,Partly Cloudy,180,2014-05-03 11:53:00
8:53 AM,77.0,73.0,88,29.94,10.0,South,6.9,-,N/A,,Clear,180,2014-05-03 12:53:00
9:53 AM,80.1,73.9,81,29.96,10.0,SSW,6.9,-,N/A,,Clear,200,2014-05-03 13:53:00
10:53 AM,86.0,70.0,59,29.97,10.0,SW,8.1,-,N/A,,Partly Cloudy,230,2014-05-03 14:53:00
11:53 AM,87.1,71.1,59,29.99,10.0,SW,8.1,-,N/A,,Mostly Cloudy,230,2014-05-03 15:53:00
12:53 PM,90.0,68.0,48,29.97,10.0,SSW,9.2,18.4,N/A,,Partly Cloudy,200,2014-05-03 16:53:00
1:53 PM,90.0,69.1,50,29.94,10.0,SSW,12.7,-,N/A,,Partly Cloudy,210,2014-05-03 17:53:00
2:50 PM,89.6,66.2,46,29.94,10.0,SSW,11.5,20.7,N/A,Thunderstorm,Thunderstorm,210,2014-05-03 18:50:00
2:53 PM,90.0,68.0,48,29.94,10.0,SSW,13.8,19.6,N/A,Thunderstorm,Thunderstorm,200,2014-05-03 18:53:00
3:05 PM,90.0,68.0,48,29.93,10.0,SW,16.1,23.0,N/A,,Scattered Clouds,230,2014-05-03 19:05:00
3:17 PM,89.1,66.9,48,29.94,10.0,SW,16.1,23.0,N/A,Thunderstorm,Thunderstorm,230,2014-05-03 19:17:00
3:38 PM,82.9,68.0,60,29.94,10.0,WNW,12.7,-,0.00,Thunderstorm,Scattered Clouds,290,2014-05-03 19:38:00
3:53 PM,82.4,68.0,62,29.94,10.0,WNW,11.5,-,N/A,,Mostly Cloudy,290,2014-05-03 19:53:00
4:53 PM,80.1,70.0,71,29.94,10.0,West,12.7,-,0.00,,Partly Cloudy,280,2014-05-03 20:53:00
5:31 PM,78.1,72.0,81,29.95,10.0,West,9.2,-,0.00,Rain-Thunderstorm,Light Rain,270,2014-05-03 21:31:00
5:53 PM,79.0,71.1,77,29.95,10.0,NW,5.8,-,0.01,Rain-Thunderstorm,Light Rain,310,2014-05-03 21:53:00
6:21 PM,80.1,72.0,76,29.96,10.0,West,4.6,-,0.00,,Clear,280,2014-05-03 22:21:00
6:53 PM,80.1,72.0,76,29.96,10.0,Calm,Calm,-,0.00,,Partly Cloudy,0,2014-05-03 22:53:00
7:53 PM,77.0,73.0,88,29.97,10.0,West,4.6,-,N/A,,Clear,280,2014-05-03 23:53:00
8:53 PM,77.0,73.0,88,29.99,10.0,WNW,4.6,-,N/A,,Partly Cloudy,290,2014-05-04 00:53:00
9:53 PM,77.0,71.1,82,30.00,10.0,NNE,4.6,-,N/A,,Clear,30,2014-05-04 01:53:00
10:53 PM,77.0,72.0,84,30.01,10.0,Calm,Calm,-,N/A,,Clear,0,2014-05-04 02:53:00
11:53 PM,78.1,71.1,79,30.01,10.0,SSE,3.5,-,N/A,,Clear,160,2014-05-04 03:53:00